SAUDISAT 2

Satellite information

Favourite Embed

Satellite Type and Status

PAYLOADIN ORBIT

Key statistics

Satellite SAUDISAT 2 at a glance.

Uptime

7783

Days in orbit

Revolutions

≈ 14.6

Per day

Orbit

SSO

Sun Synchronous Orbit

Inclination

98.5

Latest

Satellite identification and parameters

Extended collection of information and parameters for SAUDISAT 2.

Object identification

Identified? True

Debris? False

Object name: SAUDISAT 2

International designator: 2004-025F

Object number (NORAD): 28371

Object ID (CCSDS): 28371

Country: SAUDI ARABIA (SAUD)

Current information (Y/N): Y

RCS size: MEDIUM

Orbital parameters

Period: 98.871 minutes

Inclination: 98.539 deg

SMA: 7082.797 km

Apoapsis: 721.685 km

Periapsis: 687.638 km

RAAN: 280.8748 deg

Eccentricy: 0.00240351

Argument of periapsis: 320.2763 deg

Mean anomaly: 39.6673 deg

Mean motion: 14.56450116 rev/day

Mean motion (dot): 0.00000722 rev/day2

B* drag term: 0.00017313714 1/REarth

Two-line elements (TLE)

Creation date: Oct. 19, 2025, 2:20 a.m.

Reference frame: TEME

Reference center: EARTH

Epoch: Oct. 18, 2025, 9:54 p.m. UTC

TLE line 0: 0 SAUDISAT 2

TLE line 1: 1 28371U 04025F 25291.91311790 .00000722 00000-0 17314-3 0 9992

TLE line 2: 2 28371 98.5390 280.8748 0024035 320.2763 39.6673 14.56450116130620

Live tracking on map

Real-time ground track for satellite SAUDISAT 2.

In-orbit conjunctions

There are no conjunctions computed for SAUDISAT 2, at the moment. Check back to stay up to date, as we update our databases every day.

Go to all conjunctions

Associated space launch

AprizeSat, is a constellation of small Low-Earth-Orbit satellites (64 satellites planned) to achieve a global communication system of data transmission and fixed and mobile asset tracking and monitoring (GMPCS).

SAUDISAT 2 was lifted into orbit during the mission ‘Dnepr | Aprizesat-2’, on board a Dnepr space rocket.

The launch took place on June 29, 2004, 6:30 a.m. from 109/95.

For more information about the launch, click the button.

Launch to space Dnepr | Aprizesat-2
Dnepr | Aprizesat-2

Agency: N/A

Status: Launch Successful

Launch date: June 29, 2004, 6:30 a.m. UTC

Rocket: Dnepr

Launch pad: 109/95

Location: Baikonur Cosmodrome, Republic of Kazakhstan

...

Latest news about this satellite

There are no fresh news available about this satellite. Check back as we update our databases every day.


Newsletter sign-up

Weekly statistics, charts and insights to help you stay on top of the space industry.